| time (UTC) | temp F | wind direction | speed MPH | gust MPH | rain 1hr in | rain 24hr in | rain mn in | humidity % | barometer mb |
| 20260507185007 | 55 | 270 | 2.0 | 4.0 | 0.00 | 0.00 | 0.00 | 77 | 1012.7 |
| 20260507183008 | 57 | 0 | 2.0 | 6.0 | 0.00 | 0.00 | 0.00 | 74 | 1012.3 |
| 20260507182009 | 58 | 180 | 4.0 | 6.0 | 0.00 | 0.00 | 0.00 | 72 | 1012.1 |
| 20260507181009 | 58 | 180 | 4.0 | 9.0 | 0.00 | 0.00 | 0.00 | 70 | 1012.1 |
| 20260507180019 | 59 | 180 | 7.0 | 11.0 | 0.00 | 0.00 | 0.00 | 68 | 1012.0 |
| 20260507175009 | 61 | 180 | 4.0 | 6.0 | 0.00 | 0.00 | 0.00 | 64 | 1011.6 |
| 20260507174010 | 61 | 180 | 2.0 | 4.0 | 0.00 | 0.00 | 0.00 | 63 | 1011.3 |
| 20260507173014 | 62 | 270 | 5.0 | 8.0 | 0.00 | 0.00 | 0.00 | 61 | 1011.2 |
| 20260507172010 | 62 | 180 | 5.0 | 8.0 | 0.00 | 0.00 | 0.00 | 59 | 1011.1 |
| 20260507171009 | 64 | 180 | 4.0 | 7.0 | 0.00 | 0.00 | 0.00 | 57 | 1010.9 |
| 20260507170012 | 64 | 180 | 4.0 | 10.0 | 0.00 | 0.00 | 0.00 | 57 | 1010.8 |
| 20260507165011 | 64 | 180 | 5.0 | 8.0 | 0.00 | 0.00 | 0.00 | 57 | 1010.7 |
| 20260507164009 | 64 | 270 | 6.0 | 11.0 | 0.00 | 0.00 | 0.00 | 55 | 1010.6 |
| 20260507163012 | 64 | 180 | 9.0 | 11.0 | 0.00 | 0.01 | 0.00 | 53 | 1010.5 |
| 20260507162008 | 65 | 270 | 4.0 | 8.0 | 0.00 | 0.01 | 0.00 | 55 | 1010.4 |
| 20260507161008 | 65 | 180 | 7.0 | 12.0 | 0.00 | 0.06 | 0.00 | 52 | 1010.4 |
| 20260507160014 | 66 | 270 | 7.0 | 11.0 | 0.00 | 0.06 | 0.00 | 52 | 1010.3 |
| 20260507155009 | 66 | 0 | 10.0 | 14.0 | 0.00 | 0.06 | 0.00 | 51 | 1010.3 |
| 20260507154010 | 67 | 270 | 8.0 | 11.0 | 0.00 | 0.07 | 0.00 | 54 | 1010.3 |
| 20260507153010 | 65 | 180 | 6.0 | 10.0 | 0.00 | 0.07 | 0.00 | 55 | 1010.5 |
| 20260507151008 | 64 | 180 | 7.0 | 12.0 | 0.00 | 0.07 | 0.00 | 56 | 1010.4 |
| 20260507145007 | 67 | 180 | 7.0 | 10.0 | 0.00 | 0.07 | 0.00 | 58 | 1010.3 |
| 20260507143009 | 66 | 270 | 9.0 | 12.0 | 0.00 | 0.07 | 0.00 | 57 | 1010.4 |
| 20260507142010 | 67 | 180 | 8.0 | 12.0 | 0.00 | 0.07 | 0.00 | 54 | 1010.3 |
| 20260507141007 | 66 | 180 | 9.0 | 14.0 | 0.00 | 0.07 | 0.00 | 57 | 1010.2 |
| 20260507140013 | 65 | 180 | 8.0 | 12.0 | 0.00 | 0.07 | 0.00 | 59 | 1010.2 |
| 20260507135009 | 68 | 270 | 6.0 | 9.0 | 0.00 | 0.10 | 0.00 | 57 | 1010.3 |
| 20260507134009 | 65 | 180 | 5.0 | 9.0 | 0.00 | 0.11 | 0.00 | 59 | 1010.4 |
| 20260507133011 | 64 | 180 | 9.0 | 13.0 | 0.00 | 0.11 | 0.00 | 57 | 1010.4 |
| 20260507132009 | 65 | 180 | 6.0 | 9.0 | 0.00 | 0.11 | 0.00 | 58 | 1010.4 |
| 20260507131009 | 65 | 270 | 7.0 | 10.0 | 0.00 | 0.11 | 0.00 | 57 | 1010.3 |
| 20260507130012 | 67 | 270 | 5.0 | 9.0 | 0.00 | 0.11 | 0.00 | 53 | 1010.2 |
| 20260507125011 | 69 | 270 | 7.0 | 11.0 | 0.00 | 0.11 | 0.00 | 54 | 1010.1 |
| 20260507124005 | 69 | 180 | 10.0 | 13.0 | 0.00 | 0.11 | 0.00 | 55 | 1010.1 |
| 20260507122006 | 68 | 180 | 6.0 | 11.0 | 0.00 | 0.11 | 0.00 | 62 | 1010.2 |
| 20260507120013 | 70 | 270 | 4.0 | 8.0 | 0.00 | 0.11 | 0.00 | 53 | 1009.9 |
| 20260507115006 | 67 | 270 | 6.0 | 11.0 | 0.00 | 0.11 | 0.00 | 61 | 1010.3 |
| 20260507114008 | 64 | 270 | 6.0 | 9.0 | 0.00 | 0.11 | 0.00 | 61 | 1010.2 |
| 20260507113010 | 65 | 270 | 6.0 | 12.0 | 0.00 | 0.11 | 0.00 | 59 | 1010.1 |
| 20260507112009 | 65 | 225 | 6.0 | 11.0 | 0.00 | 0.11 | 0.00 | 62 | 1010.1 |
| 20260507111009 | 67 | 225 | 7.0 | 11.0 | 0.00 | 0.11 | 0.00 | 63 | 1010.2 |
| 20260507110012 | 64 | 270 | 7.0 | 11.0 | 0.00 | 0.11 | 0.00 | 64 | 1010.1 |
| 20260507105008 | 64 | 180 | 5.0 | 11.0 | 0.00 | 0.11 | 0.00 | 67 | 1010.2 |
| 20260507104009 | 63 | 270 | 5.0 | 9.0 | 0.00 | 0.11 | 0.00 | 67 | 1010.2 |
| 20260507103011 | 64 | 270 | 6.0 | 12.0 | 0.00 | 0.11 | 0.00 | 68 | 1010.1 |
| 20260507101007 | 65 | 180 | 9.0 | 13.0 | 0.00 | 0.11 | 0.00 | 66 | 1009.9 |
| 20260507100014 | 64 | 270 | 5.0 | 8.0 | 0.00 | 0.11 | 0.00 | 67 | 1009.8 |
| 20260507095005 | 65 | 225 | 4.0 | 8.0 | 0.00 | 0.11 | 0.00 | 64 | 1009.8 |
| 20260507094006 | 65 | 180 | 5.0 | 10.0 | 0.00 | 0.11 | 0.00 | 68 | 1009.9 |
| 20260507093007 | 64 | 270 | 6.0 | 11.0 | 0.00 | 0.11 | 0.00 | 68 | 1009.8 |
| 20260507092010 | 62 | 225 | 8.0 | 11.0 | 0.00 | 0.11 | 0.00 | 73 | 1010.0 |
| 20260507090012 | 63 | 270 | 5.0 | 7.0 | 0.00 | 0.11 | 0.00 | 73 | 1009.7 |
| 20260507084006 | 63 | 270 | 4.0 | 7.0 | 0.00 | 0.11 | 0.00 | 73 | 1009.5 |
| 20260507082009 | 61 | 270 | 4.0 | 8.0 | 0.00 | 0.11 | 0.00 | 74 | 1009.7 |
| 20260507081008 | 60 | 270 | 5.0 | 10.0 | 0.00 | 0.11 | 0.00 | 76 | 1009.6 |
| 20260507075009 | 60 | 225 | 6.0 | 11.0 | 0.00 | 0.11 | 0.00 | 79 | 1009.7 |
| 20260507074011 | 59 | 270 | 5.0 | 8.0 | 0.00 | 0.11 | 0.00 | 79 | 1009.6 |
| 20260507072009 | 58 | 270 | 6.0 | 11.0 | 0.00 | 0.11 | 0.00 | 80 | 1009.5 |
| 20260507071007 | 59 | 270 | 5.0 | 9.0 | 0.00 | 0.11 | 0.00 | 80 | 1009.4 |
| 20260507070013 | 58 | 270 | 7.0 | 10.0 | 0.00 | 0.11 | 0.00 | 81 | 1009.3 |
| 20260507065009 | 58 | 270 | 6.0 | 9.0 | 0.00 | 0.11 | 0.00 | 82 | 1009.4 |
| 20260507064008 | 57 | 270 | 5.0 | 7.0 | 0.00 | 0.11 | 0.00 | 83 | 1009.4 |
| 20260507063010 | 57 | 225 | 5.0 | 9.0 | 0.00 | 0.11 | 0.00 | 83 | 1009.3 |
| 20260507062008 | 57 | 225 | 6.0 | 9.0 | 0.00 | 0.11 | 0.00 | 84 | 1009.2 |
| 20260507061006 | 57 | 270 | 6.0 | 9.0 | 0.00 | 0.11 | 0.00 | 84 | 1008.9 |
| 20260507060013 | 57 | 180 | 5.0 | 9.0 | 0.00 | 0.11 | 0.00 | 85 | 1008.9 |
| 20260507055009 | 56 | 270 | 4.0 | 9.0 | 0.00 | 0.11 | 0.00 | 87 | 1008.9 |
| 20260507053010 | 56 | 315 | 4.0 | 7.0 | 0.00 | 0.11 | 0.00 | 89 | 1008.6 |
| 20260507052009 | 56 | 270 | 5.0 | 7.0 | 0.00 | 0.11 | 0.00 | 88 | 1008.6 |
| 20260507051008 | 56 | 270 | 4.0 | 6.0 | 0.00 | 0.11 | 0.00 | 91 | 1008.4 |
| 20260507050011 | 55 | 225 | 4.0 | 5.0 | 0.00 | 0.11 | 0.00 | 93 | 1008.4 |
| 20260507045006 | 55 | 270 | 3.0 | 5.0 | 0.00 | 0.11 | 0.00 | 94 | 1008.2 |
| 20260507044009 | 54 | 180 | 0.0 | 2.0 | 0.00 | 0.11 | 0.00 | 95 | 1008.1 |
| 20260507043014 | 54 | 135 | 1.0 | 4.0 | 0.00 | 0.11 | 0.00 | 96 | 1008.1 |
| 20260507042008 | 54 | 135 | 1.0 | 3.0 | 0.00 | 0.11 | 0.00 | 96 | 1007.9 |
| 20260507041007 | 54 | 225 | 0.0 | 2.0 | 0.00 | 0.11 | 0.00 | 96 | 1007.7 |
| 20260507040013 | 53 | 180 | 2.0 | 3.0 | 0.00 | 0.11 | 0.00 | 96 | 1007.8 |
| 20260507035008 | 53 | 180 | 1.0 | 2.0 | 0.00 | 0.11 | 0.00 | 97 | 1007.6 |
| 20260507032009 | 53 | 135 | 1.0 | 2.0 | 0.00 | 0.11 | 0.00 | 96 | 1007.5 |
| 20260507031007 | 53 | 135 | 0.0 | 1.0 | 0.00 | 0.11 | 0.00 | 96 | 1007.4 |
| 20260507030012 | 53 | 270 | 1.0 | 2.0 | 0.00 | 0.11 | 0.00 | 96 | 1007.3 |
| 20260507025008 | 53 | 270 | 2.0 | 4.0 | 0.00 | 0.11 | 0.00 | 96 | 1007.4 |
| 20260507024006 | 53 | 0 | 3.0 | 4.0 | 0.00 | 0.11 | 0.00 | 96 | 1007.2 |
| 20260507023008 | 53 | 0 | 4.0 | 5.0 | 0.00 | 0.11 | 0.00 | 96 | 1007.2 |
| 20260507021008 | 52 | 270 | 4.0 | 5.0 | 0.00 | 0.11 | 0.00 | 96 | 1007.3 |
| 20260507020014 | 52 | 0 | 4.0 | 6.0 | 0.00 | 0.11 | 0.00 | 96 | 1007.1 |
| 20260507015007 | 52 | 270 | 4.0 | 5.0 | 0.00 | 0.11 | 0.00 | 95 | 1006.9 |
| 20260507014008 | 52 | 0 | 3.0 | 4.0 | 0.00 | 0.11 | 0.00 | 95 | 1006.8 |
| 20260507013007 | 53 | 0 | 2.0 | 4.0 | 0.00 | 0.11 | 0.00 | 94 | 1006.6 |
| 20260507012012 | 54 | 0 | 1.0 | 2.0 | 0.00 | 0.11 | 0.00 | 93 | 1006.6 |
| 20260507011008 | 54 | 225 | 1.0 | 3.0 | 0.00 | 0.11 | 0.00 | 93 | 1006.4 |
| 20260507010013 | 54 | 225 | 0.0 | 2.0 | 0.00 | 0.11 | 0.00 | 92 | 1006.3 |
| 20260507004009 | 55 | 45 | 1.0 | 3.0 | 0.00 | 0.11 | 0.00 | 91 | 1005.8 |
| 20260507003009 | 55 | 90 | 0.0 | 2.0 | 0.00 | 0.11 | 0.00 | 91 | 1005.7 |
| 20260507002009 | 55 | 0 | 1.0 | 4.0 | 0.00 | 0.11 | 0.00 | 91 | 1005.7 |
| 20260507001009 | 55 | 0 | 2.0 | 4.0 | 0.00 | 0.11 | 0.00 | 90 | 1005.5 |
| 20260507000012 | 56 | 0 | 3.0 | 5.0 | 0.00 | 0.11 | 0.00 | 88 | 1005.8 |
| 20260506235008 | 56 | 0 | 3.0 | 6.0 | 0.00 | 0.11 | 0.00 | 88 | 1005.9 |
| 20260506234008 | 56 | 45 | 4.0 | 8.0 | 0.00 | 0.11 | 0.00 | 87 | 1005.4 |
| 20260506232008 | 56 | 0 | 3.0 | 6.0 | 0.00 | 0.11 | 0.00 | 88 | 1005.3 |
| 20260506230012 | 56 | 0 | 4.0 | 6.0 | 0.00 | 0.11 | 0.00 | 88 | 1005.6 |
| 20260506225009 | 57 | 270 | 4.0 | 7.0 | 0.00 | 0.11 | 0.00 | 87 | 1005.9 |
| 20260506223009 | 57 | 270 | 5.0 | 11.0 | 0.00 | 0.11 | 0.00 | 87 | 1005.8 |
| 20260506222008 | 57 | 0 | 8.0 | 11.0 | 0.00 | 0.11 | 0.00 | 85 | 1006.1 |
| 20260506221009 | 57 | 0 | 10.0 | 17.0 | 0.00 | 0.11 | 0.00 | 86 | 1005.8 |
| 20260506215006 | 56 | 90 | 3.0 | 7.0 | 0.00 | 0.11 | 0.11 | 86 | 1004.5 |
| 20260506214007 | 56 | 0 | 4.0 | 9.0 | 0.00 | 0.11 | 0.11 | 87 | 1004.5 |
| 20260506213010 | 55 | 180 | 3.0 | 6.0 | 0.00 | 0.11 | 0.11 | 90 | 1004.7 |
| 20260506212008 | 55 | 0 | 2.0 | 4.0 | 0.00 | 0.11 | 0.11 | 89 | 1004.7 |
| 20260506211008 | 55 | 270 | 6.0 | 10.0 | 0.00 | 0.11 | 0.11 | 89 | 1004.7 |
| 20260506210013 | 54 | 225 | 1.0 | 3.0 | 0.00 | 0.11 | 0.11 | 88 | 1004.3 |
| 20260506205008 | 54 | 135 | 1.0 | 3.0 | 0.00 | 0.11 | 0.11 | 89 | 1004.1 |
| 20260506203010 | 55 | 90 | 2.0 | 4.0 | 0.00 | 0.11 | 0.11 | 85 | 1003.8 |
| 20260506202008 | 56 | 0 | 3.0 | 5.0 | 0.00 | 0.11 | 0.11 | 85 | 1003.5 |
| 20260506201009 | 55 | 45 | 4.0 | 6.0 | 0.00 | 0.11 | 0.11 | 86 | 1003.8 |
| 20260506195008 | 56 | 45 | 3.0 | 6.0 | 0.00 | 0.11 | 0.11 | 88 | 1003.7 |
| 20260506194009 | 56 | 90 | 4.0 | 6.0 | 0.00 | 0.11 | 0.11 | 87 | 1003.7 |
| 20260506193008 | 56 | 45 | 4.0 | 8.0 | 0.00 | 0.11 | 0.11 | 87 | 1003.8 |
| 20260506192006 | 56 | 90 | 3.0 | 6.0 | 0.00 | 0.11 | 0.11 | 87 | 1003.8 |
| 20260506191010 | 56 | 45 | 4.0 | 6.0 | 0.00 | 0.11 | 0.11 | 87 | 1003.7 |